Flag for U.S.A. Weather past 2 weeks in Passaic, New Jersey, U.S.A.

Now
67 °F

Passing clouds.


Feels Like: 67 °F
Forecast: 66 / 86 °F
Wind: No wind

Location: Teterboro Airport

Current Time: Jul 5, 2015 at 4:01:50 AM

Latest Report: Jul 5, 2015 at 2:51 AM


Visibility: 10 mi

Pressure: 30.03 "Hg

Humidity: 76%

Dew point: 59 °F

Location of PassaicLocation

Historic Weather in Passaic — Graph

°F

Passaic temperature yesterday

Maximum temperature yesterday: 78 °F (at 4:51 PM)
Minimum temperature yesterday: 69 °F (at 10:51 PM)
Average temperature yesterday: 72 °F

Past Weeks' High & Low Weather Summary

 TemperatureHumidityPressure
High91 °F (Jun 23, 2:51 PM)94% (Jun 20, 8:58 PM)30.11 "Hg (Jun 20, 8:58 PM)
Low60 °F (Jun 27, 8:51 PM)31% (Jun 25, 12:51 PM)29.65 "Hg (Jun 28, 10:51 AM)
Average74 °F62%29.90 "Hg
* Reported Jun 20 2:51 AM — Jul 5 2:51 AM, Passaic, Weather by CustomWeather, © 2015

Note: Actual official high and low records may vary slightly from our data, if they occured in-between our weather recording intervals... More about our weather records

Advertising

Passaic weather history for previous 24 hours

 ConditionsComfort  
Time TempWeatherWind HumidityBarometerVisibility
2:51 AM
Sun, Jul 5
67 °FPassing clouds.No wind76%30.03 "Hg10 mi
1:51 AM68 °FClear.No wind73%30.03 "Hg9 mi
12:51 AM69 °FPassing clouds.No wind70%30.02 "Hg9 mi
11:51 PM
Sat, Jul 4
69 °FPassing clouds.3 mph70%30.01 "Hg10 mi
10:51 PM69 °FClear.5 mph68%30.00 "Hg10 mi
9:51 PM72 °FClear.No wind59%29.98 "Hg10 mi
8:51 PM74 °FPartly sunny.No wind50%29.96 "Hg10 mi
7:51 PM74 °FMostly cloudy.3 mph56%29.95 "Hg10 mi
6:51 PM75 °FMore clouds than sun.6 mph54%29.93 "Hg10 mi
5:51 PM76 °FBroken clouds.5 mph56%29.92 "Hg10 mi
4:51 PM78 °FSunny.6 mph46%29.92 "Hg10 mi
3:51 PM76 °FLight rain. Passing clouds.5 mph52%29.93 "Hg10 mi
2:51 PM74 °FLight rain. Scattered clouds.3 mph60%29.95 "Hg10 mi
1:51 PM72 °FLight rain. More clouds than sun.3 mph61%29.96 "Hg10 mi
12:51 PM70 °FLight rain. More clouds than sun.9 mph73%29.96 "Hg10 mi
11:51 AM72 °FMore clouds than sun.9 mph66%29.95 "Hg10 mi
10:51 AM73 °FOvercast.6 mph64%29.95 "Hg10 mi
9:51 AM72 °FMostly cloudy.3 mph66%29.94 "Hg10 mi
8:51 AM71 °FOvercast.5 mph66%29.93 "Hg10 mi
7:51 AM71 °FScattered clouds.3 mph63%29.93 "Hg10 mi
6:51 AM71 °FPartly sunny.No wind68%29.93 "Hg10 mi
5:51 AM70 °FClear.No wind73%29.93 "Hg10 mi
4:51 AM70 °FLight rain. Mostly cloudy.No wind76%29.94 "Hg10 mi
Weather by CustomWeather, © 2015

See weather overviewHow to use our weather pages